Location: Unspecified
(0.0000°N, 0.0000°E)
Time: 07:21:41
(UTC+00:00)

Vanguard 2 Rocket - Pass Details

Date: 14 October 2022
Orbit: 555 x 3321 km, 32.9° (Epoch: 06 December)

Event Time Altitude Azimuth Distance (km) Brightness Sun altitude
Rises 15:39:47 0° 237° (WSW) 5,279 11.7 31.2°
Reaches altitude 10° 15:42:41 10° 237° (WSW) 4,582 11.7 30.5°
Maximum altitude 15:56:54 84° 324° (NW) 2,921 10.0 27.0°
Drops below altitude 10° 16:17:26 10° 52° (NE) 6,265 10.7 21.9°
Sets 16:22:14 0° 53° (NE) 7,217 11.0 20.7°
